TimeEDT,TemperatureF,Dew PointF,Humidity,Sea Level PressureIn,VisibilityMPH,Wind Direction,Wind SpeedMPH,Gust SpeedMPH,PrecipitationIn,Events,Conditions,WindDirDegrees,DateUTC
12:53 AM,53.1,42.1,66,29.93,10.0,Calm,Calm,-,0.00,Rain,Light Rain,0,2013-03-31 04:53:00
1:53 AM,51.1,46.0,83,29.91,10.0,Calm,Calm,-,0.01,Rain,Light Rain,0,2013-03-31 05:53:00
2:53 AM,50.0,46.0,86,29.88,8.0,Calm,Calm,-,0.01,Rain,Light Rain,0,2013-03-31 06:53:00
3:53 AM,50.0,46.9,89,29.86,9.0,Calm,Calm,-,0.01,,Overcast,0,2013-03-31 07:53:00
4:53 AM,50.0,48.0,93,29.83,6.0,Calm,Calm,-,0.01,,Overcast,0,2013-03-31 08:53:00
5:17 AM,48.2,48.2,100,29.84,4.0,NW,4.6,-,N/A,,Overcast,320,2013-03-31 09:17:00
5:53 AM,48.9,46.9,93,29.83,5.0,Calm,Calm,-,0.00,Rain,Light Rain,0,2013-03-31 09:53:00
6:34 AM,48.2,46.4,93,29.84,3.0,NNW,4.6,-,0.00,Rain,Light Rain,340,2013-03-31 10:34:00
6:43 AM,48.2,46.4,93,29.84,2.5,North,3.5,-,0.00,Rain,Light Rain,350,2013-03-31 10:43:00
6:53 AM,48.0,46.0,93,29.84,2.5,North,4.6,-,0.00,Rain,Light Rain,350,2013-03-31 10:53:00
7:00 AM,48.2,46.4,93,29.84,3.0,NNW,4.6,-,0.01,Rain,Light Rain,340,2013-03-31 11:00:00
7:07 AM,48.2,46.4,93,29.85,2.5,NNW,3.5,-,0.01,Rain,Light Rain,330,2013-03-31 11:07:00
7:34 AM,48.2,46.4,93,29.85,2.0,Calm,Calm,-,0.01,Rain,Light Rain,0,2013-03-31 11:34:00
7:40 AM,48.2,46.4,93,29.85,2.0,Variable,3.5,-,0.02,Rain,Light Rain,0,2013-03-31 11:40:00
7:53 AM,48.0,46.9,96,29.86,2.0,WNW,4.6,-,0.02,,Overcast,300,2013-03-31 11:53:00
8:02 AM,48.2,46.4,93,29.86,2.5,WNW,4.6,-,N/A,,Overcast,300,2013-03-31 12:02:00
8:21 AM,48.2,46.4,93,29.86,1.2,WNW,3.5,-,N/A,,Overcast,290,2013-03-31 12:21:00
8:29 AM,48.2,46.4,93,29.87,1.2,WNW,4.6,-,N/A,,Overcast,290,2013-03-31 12:29:00
8:53 AM,48.0,46.9,96,29.88,2.0,West,4.6,-,N/A,,Overcast,280,2013-03-31 12:53:00
9:08 AM,48.2,46.4,93,29.88,3.0,West,4.6,-,N/A,,Overcast,270,2013-03-31 13:08:00
9:15 AM,48.2,46.4,93,29.87,3.0,WNW,6.9,-,N/A,,Overcast,290,2013-03-31 13:15:00
9:53 AM,48.9,46.9,93,29.89,4.0,West,5.8,-,N/A,,Overcast,260,2013-03-31 13:53:00
10:20 AM,50.0,46.4,87,29.89,7.0,West,8.1,-,N/A,,Overcast,270,2013-03-31 14:20:00
10:33 AM,50.0,46.4,87,29.89,8.0,WSW,5.8,-,N/A,,Overcast,250,2013-03-31 14:33:00
10:53 AM,51.1,46.9,86,29.88,10.0,West,6.9,-,N/A,,Overcast,270,2013-03-31 14:53:00
11:53 AM,51.1,46.0,83,29.90,10.0,SW,8.1,-,N/A,,Overcast,230,2013-03-31 15:53:00
12:16 PM,51.8,46.4,82,29.91,10.0,WSW,9.2,-,N/A,,Overcast,250,2013-03-31 16:16:00
12:53 PM,52.0,46.9,83,29.91,10.0,West,10.4,-,N/A,,Overcast,260,2013-03-31 16:53:00
1:53 PM,53.1,46.0,77,29.90,10.0,West,10.4,-,N/A,,Overcast,270,2013-03-31 17:53:00
2:53 PM,55.0,46.9,74,29.86,10.0,SW,9.2,-,N/A,,Overcast,220,2013-03-31 18:53:00
3:30 PM,57.2,46.4,67,29.85,10.0,SW,10.4,-,N/A,,Partly Cloudy,220,2013-03-31 19:30:00
3:53 PM,57.9,46.0,65,29.85,10.0,SSW,10.4,17.3,N/A,,Scattered Clouds,210,2013-03-31 19:53:00
4:53 PM,59.0,43.0,55,29.84,10.0,West,12.7,18.4,N/A,,Partly Cloudy,270,2013-03-31 20:53:00
5:53 PM,59.0,42.1,53,29.84,10.0,West,11.5,-,N/A,,Partly Cloudy,270,2013-03-31 21:53:00
6:53 PM,59.0,41.0,51,29.86,10.0,West,11.5,20.7,N/A,,Partly Cloudy,260,2013-03-31 22:53:00
7:53 PM,57.9,41.0,53,29.85,10.0,SW,5.8,-,N/A,,Clear,230,2013-03-31 23:53:00
8:53 PM,55.9,42.1,60,29.85,10.0,WSW,4.6,-,N/A,,Clear,240,2013-04-01 00:53:00
9:53 PM,54.0,42.1,64,29.86,10.0,SW,3.5,-,N/A,,Clear,220,2013-04-01 01:53:00
10:53 PM,52.0,42.1,69,29.87,10.0,Calm,Calm,-,N/A,,Clear,0,2013-04-01 02:53:00
11:53 PM,50.0,42.1,74,29.86,10.0,SW,3.5,-,N/A,,Clear,220,2013-04-01 03:53:00